Weather in Ubari

Libya     26°42′40″N   12°32′05″E
temp.,
°C
wind,
m/s
gust,
m/s
humid.,
%
clouds,
%
prec.,
mm/h
press.,
hPa
HPBL,
m
15 may, sat
sat1523:00+29ne5112169 0.0 1010174
02:00+27ene592360 0.0 1011143
05:00+26ene6112453 0.0 1010180
08:00+26ene6112315 0.0 1013372
11:00+34ene10101418 0.0 1013891
14:00+38ene771097 0.0 10112010
17:00+38ene66102 0.0 10112372
20:00+33ene4513100 0.0 101126
16 may, sun
sun1623:00+29ene441545 0.0 101421
02:00+27ene45170 0.0 101442
05:00+24ene713215 0.0 1015193
08:00+23e711390 0.0 1017401
11:00+30e78193 0.0 1017813
14:00+36e54110 0.0 10141576
17:00+37ne45105 0.0 10122660
20:00+32ne571317 0.0 101351
17 may, mon
mon1723:00+28ene58155 0.0 101575
02:00+26e5101614 0.0 1014116
05:00+24e4516100 0.0 101551
08:00+26ese491563 0.0 1016279
11:00+34ese6610100 0.0 10151028
14:00+37e55719 0.0 10132330
17:00+37ene547100 0.0 10123010
20:00+32ene4580 0.0 101323
18 may, tue
tue1823:00+29e441144 0.0 101531
02:00+27e4415100 0.0 101432
05:00+25e441755 0.0 101539
08:00+27ese391697 0.0 1016265
11:00+35se610105 0.0 10161748
14:00+38e7872 0.0 10143269
17:00+38e88676 0.0 10123891
20:00+32e45977 0.0 101431
19 may, wed
wed1923:00+29ese44108 0.0 101519
02:00+27e55115 0.0 101537
05:00+25e331499 0.0 101414
08:00+28se412129 0.0 1016318
11:00+36se81180 0.0 10162349
14:00+38ese81070 0.0 10143593
17:00+38e9971 0.0 10123999
20:00+33e6101092 0.0 101397